Kimball, NE

2:45 AM MST on December 08, 2016 (GMT -0700)
Kimball Municipal-Arraj

Weather History for KIBM - May, 2012

Change the Weather History Date:

Thursday, May 24, 2012

  Actual Average (KSNY) Record (KSNY)
Temperature  
Mean Temperature 50 °F 60 °F  
Max Temperature 59 °F 74 °F 93 °F (1967)
Min Temperature 40 °F 46 °F 30 °F (2001)
Degree Days  
Heating Degree Days 15 6  
Month to date heating degree days 215  
Since 1 July heating degree days 6127  
Cooling Degree Days 0 1  
Month to date cooling degree days 15  
Year to date cooling degree days 16  
Moisture  
Dew Point 36 °F    
Average Humidity 62    
Maximum Humidity 92    
Minimum Humidity 32    
Precipitation  
Precipitation 0.00 in 0.10 in 1.26 in (1968)
Month to date precipitation 2.32  
Year to date precipitation 5.99  
Sea Level Pressure  
Sea Level Pressure 29.70 in    
Wind  
Wind Speed 13 mph (NNW)    
Max Wind Speed 23 mph    
Max Gust Speed 34 mph    
Visibility 10 miles    
Events      
T = Trace of Precipitation, MM = Missing Value Source: NWS Daily Summary

Daily Weather History Graph

Daily Weather History Graph

Search for Another Location

Airport or City:

Trip Planner

Search our weather history database for the weather conditions in past years. The results will help you decide how hot, cold, wet, or windy it might be!

Date:

Astronomy

May. 24, 2012 Rise Set
Actual Time 6:28 AM CDT 9:15 PM CDT
Civil Twilight 5:56 AM CDT 9:47 PM CDT
Nautical Twilight 5:15 AM CDT 10:28 PM CDT
Astronomical Twilight 4:29 AM CDT 11:15 PM CDT
Moon 9:30 AM CDT (5/24) No Moon Set
Length of Visible Light 15h 51m
Length of Day
14h 46m
Waxing Crescent, 12% of the Moon is Illuminated
May 24
Waxing Crescent
May 28
First Quarter
Jun 4
Full
Jun 11
Last Quarter
Jun 19
New

Hourly Weather History & Observations

Time (CDT) Temp. Windchill Dew Point Humidity Pressure Visibility Wind Dir Wind Speed Gust Speed Precip Events Conditions
12:15 AM 50.0 °F - 43.0 °F 77% 29.63 in 10.0 mi WSW 9.2 mph - N/A   Overcast
12:35 AM 49.6 °F - 42.4 °F 76% 29.62 in 10.0 mi SW 10.4 mph - N/A   Overcast
12:55 AM 49.3 °F - 42.1 °F 76% 29.60 in 10.0 mi SW 11.5 mph - N/A   Overcast
1:15 AM 48.9 °F - 42.1 °F 77% 29.61 in 10.0 mi SW 15.0 mph - N/A   Overcast
1:35 AM 49.1 °F - 41.4 °F 75% 29.60 in 10.0 mi WSW 15.0 mph - N/A   Overcast
1:55 AM 48.2 °F - 41.9 °F 79% 29.58 in 10.0 mi WSW 13.8 mph - N/A   Scattered Clouds
2:15 AM 49.1 °F - 40.3 °F 72% 29.58 in 10.0 mi West 18.4 mph - N/A   Clear
2:35 AM 48.6 °F - 42.3 °F 79% 29.58 in 10.0 mi West 13.8 mph - N/A   Clear
2:55 AM 48.2 °F - 42.6 °F 81% 29.59 in 10.0 mi West 17.3 mph - N/A   Clear
3:15 AM 47.3 °F - 42.3 °F 83% 29.60 in 10.0 mi West 12.7 mph - N/A   Clear
3:35 AM 46.4 °F 40.4 °F 41.9 °F 84% 29.60 in 10.0 mi WNW 13.8 mph - N/A   Clear
3:55 AM 45.5 °F 39.9 °F 41.0 °F 84% 29.60 in 10.0 mi WNW 11.5 mph - N/A   Clear
4:15 AM 45.0 °F 38.9 °F 40.1 °F 83% 29.60 in 10.0 mi WNW 12.7 mph - N/A   Clear
4:35 AM 43.9 °F 37.5 °F 39.7 °F 85% 29.62 in 10.0 mi WNW 12.7 mph - N/A   Clear
4:55 AM 43.0 °F 36.8 °F 39.4 °F 87% 29.61 in 10.0 mi NW 11.5 mph - N/A   Clear
5:15 AM 42.3 °F 35.9 °F 39.6 °F 90% 29.62 in 10.0 mi NW 11.5 mph - N/A   Clear
5:35 AM 42.4 °F 36.5 °F 39.9 °F 91% 29.63 in 10.0 mi NW 10.4 mph 16.1 mph N/A   Clear
5:55 AM 41.9 °F 35.4 °F 39.7 °F 92% 29.64 in 10.0 mi NW 11.5 mph - N/A   Clear
6:15 AM 42.6 °F 35.6 °F 40.3 °F 91% 29.65 in 10.0 mi NW 13.8 mph - N/A   Clear
6:35 AM 43.0 °F 35.4 °F 40.1 °F 90% 29.65 in 10.0 mi NW 16.1 mph - N/A   Clear
7:15 AM 42.8 °F 36.6 °F 39.4 °F 88% 29.67 in 10.0 mi NW 11.5 mph - N/A   Clear
7:35 AM 42.4 °F 36.5 °F 39.2 °F 88% 29.67 in 10.0 mi NW 10.4 mph - N/A   Clear
7:55 AM 41.4 °F 35.2 °F 37.9 °F 88% 29.68 in 10.0 mi NW 10.4 mph - N/A   Clear
8:15 AM 43.9 °F 37.2 °F 38.3 °F 81% 29.68 in 10.0 mi NW 13.8 mph 18.4 mph N/A   Clear
8:35 AM 45.0 °F 38.2 °F 38.3 °F 77% 29.69 in 10.0 mi NW 15.0 mph 18.4 mph N/A   Mostly Cloudy
8:55 AM 45.5 °F 39.2 °F 38.1 °F 75% 29.69 in 10.0 mi NNW 13.8 mph 23.0 mph N/A   Overcast
9:15 AM 46.2 °F 39.5 °F 37.2 °F 71% 29.69 in 10.0 mi NW 16.1 mph 23.0 mph N/A   Overcast
9:35 AM 46.8 °F - 37.0 °F 69% 29.70 in 10.0 mi NNW 15.0 mph 19.6 mph N/A   Overcast
9:55 AM 48.4 °F - 37.6 °F 66% 29.69 in 10.0 mi NNW 13.8 mph 20.7 mph N/A   Overcast
10:15 AM 50.2 °F - 37.0 °F 61% 29.69 in 10.0 mi NW 20.7 mph 25.3 mph N/A   Mostly Cloudy
10:35 AM 51.8 °F - 36.3 °F 56% 29.69 in 10.0 mi NW 16.1 mph 24.2 mph N/A   Mostly Cloudy
10:55 AM 52.2 °F - 36.0 °F 54% 29.69 in 10.0 mi NW 23.0 mph 29.9 mph N/A   Mostly Cloudy
11:15 AM 53.6 °F - 35.4 °F 50% 29.69 in 10.0 mi NW 17.3 mph 26.5 mph N/A   Scattered Clouds
11:35 AM 55.4 °F - 34.0 °F 44% 29.69 in 10.0 mi NW 17.3 mph 27.6 mph N/A   Scattered Clouds
11:55 AM 55.8 °F - 34.0 °F 44% 29.70 in 10.0 mi NW 18.4 mph 29.9 mph N/A   Scattered Clouds
12:15 PM 56.8 °F - 32.7 °F 40% 29.70 in 10.0 mi NW 21.9 mph 28.8 mph N/A   Scattered Clouds
12:35 PM 57.7 °F - 32.2 °F 38% 29.70 in 10.0 mi WNW 19.6 mph 31.1 mph N/A   Scattered Clouds
12:55 PM 58.8 °F - 29.8 °F 33% 29.70 in 10.0 mi NNW 18.4 mph 34.5 mph N/A   Clear
1:15 PM 58.5 °F - 30.4 °F 34% 29.70 in 10.0 mi NW 18.4 mph 32.2 mph N/A   Scattered Clouds
1:35 PM 59.0 °F - 30.6 °F 34% 29.70 in 10.0 mi NNW 17.3 mph 25.3 mph N/A   Scattered Clouds
1:55 PM 58.3 °F - 32.9 °F 38% 29.70 in 10.0 mi NNW 20.7 mph 26.5 mph N/A   Mostly Cloudy
2:15 PM 58.5 °F - 31.5 °F 36% 29.70 in 7.0 mi NW 17.3 mph 25.3 mph N/A   Scattered Clouds
2:35 PM 59.4 °F - 29.1 °F 32% 29.70 in 10.0 mi NNW 17.3 mph 26.5 mph N/A   Mostly Cloudy
2:55 PM 55.9 °F - 31.1 °F 39% 29.70 in 10.0 mi NNW 18.4 mph 29.9 mph N/A   Mostly Cloudy
3:15 PM 59.9 °F - 31.3 °F 34% 29.70 in 10.0 mi NNW 20.7 mph 27.6 mph N/A   Mostly Cloudy
3:35 PM 57.4 °F - 33.8 °F 41% 29.72 in 10.0 mi North 19.6 mph 25.3 mph N/A   Mostly Cloudy
3:55 PM 55.6 °F - 33.1 °F 43% 29.72 in 10.0 mi NNW 16.1 mph 24.2 mph N/A   Overcast
4:15 PM 56.5 °F - 34.0 °F 43% 29.73 in 10.0 mi North 16.1 mph 23.0 mph N/A   Overcast
4:35 PM 57.7 °F - 33.4 °F 40% 29.75 in 10.0 mi NNW 6.9 mph 17.3 mph N/A   Mostly Cloudy
4:55 PM 59.0 °F - 32.2 °F 36% 29.74 in 10.0 mi Calm Calm - N/A   Mostly Cloudy
5:15 PM 54.9 °F - 35.4 °F 48% 29.74 in 10.0 mi SE 4.6 mph - N/A   Mostly Cloudy
5:35 PM 55.0 °F - 34.3 °F 46% 29.74 in 10.0 mi ESE 9.2 mph - N/A   Overcast
5:55 PM 55.2 °F - 35.2 °F 47% 29.74 in 10.0 mi East 8.1 mph - N/A   Overcast
6:15 PM 56.7 °F - 33.6 °F 42% 29.75 in 10.0 mi NE 6.9 mph - N/A   Overcast
6:35 PM 56.5 °F - 33.1 °F 41% 29.75 in 10.0 mi NE 11.5 mph - N/A   Overcast
6:55 PM 55.8 °F - 33.8 °F 44% 29.75 in 10.0 mi NE 13.8 mph 19.6 mph N/A   Scattered Clouds
7:15 PM 54.7 °F - 33.8 °F 45% 29.76 in 10.0 mi NE 11.5 mph - N/A   Clear
7:35 PM 56.3 °F - 33.3 °F 42% 29.77 in 10.0 mi ENE 12.7 mph - N/A   Clear
7:55 PM 55.4 °F - 32.9 °F 43% 29.77 in 10.0 mi NE 10.4 mph - N/A   Scattered Clouds
8:15 PM 54.9 °F - 32.7 °F 43% 29.76 in 10.0 mi North 16.1 mph - N/A   Clear
8:35 PM 53.4 °F - 32.9 °F 46% 29.79 in 10.0 mi ESE 11.5 mph - N/A   Clear
8:55 PM 50.9 °F - 33.6 °F 52% 29.80 in 10.0 mi East 9.2 mph - N/A   Scattered Clouds
9:15 PM 48.7 °F - 34.5 °F 58% 29.82 in 10.0 mi East 10.4 mph - N/A   Clear
9:35 PM 47.1 °F - 34.7 °F 62% 29.82 in 10.0 mi East 9.2 mph - N/A   Clear
9:55 PM 45.7 °F 41.0 °F 34.7 °F 65% 29.83 in 10.0 mi ENE 9.2 mph - N/A   Clear
10:15 PM 44.1 °F 39.5 °F 34.7 °F 70% 29.83 in 10.0 mi ENE 8.1 mph - N/A   Clear
10:35 PM 43.5 °F 39.4 °F 34.3 °F 70% 29.85 in 10.0 mi East 6.9 mph - N/A   Clear
10:55 PM 41.0 °F 36.4 °F 33.8 °F 76% 29.86 in 10.0 mi East 6.9 mph - N/A   Clear
11:15 PM 41.7 °F 37.3 °F 34.0 °F 74% 29.86 in 10.0 mi East 6.9 mph - N/A   Clear
11:35 PM 41.4 °F 37.6 °F 33.8 °F 74% 29.87 in 10.0 mi ENE 5.8 mph - N/A   Clear
11:55 PM 40.1 °F 36.9 °F 33.6 °F 78% 29.89 in 10.0 mi ESE 4.6 mph - N/A   Clear